EW7225 Cave IT current weather conditions

sailwx.info

Wind from 273 at 3 knots gusting 10

Air temperature 13.3° C
Dewpoint 2.0° C

Last reported at 2019-Dec-14 14:00 UTC.
Time now 2019-Dec-14 15:16 UTC

Location: N 41°48' E 012°56'.
View on Google Maps.

See reports from other nearby stations

  
Tides and Currents Weather Stations Pressure Air Temp Water Temp Dewpoint Dewpoint Depression Visibility Wind Speed Wind Dir Waves Ship Positions
date/time (UTC)wind fromknots sea level pressurealtimeterstation pressurevisibilityair tempwater tempwave heightnotes
2019-Dec-14 14:00 273 3 gusting 10 13.3
2019-Dec-14 13:50 282 5 gusting 10 13.9
2019-Dec-14 13:40 281 5 gusting 13 14.4
2019-Dec-14 13:30 277 4 gusting 13 15.0
2019-Dec-14 13:20 285 3 gusting 7 15.0
2019-Dec-14 13:10 272 5 gusting 10 15.6
2019-Dec-14 13:00 273 3 gusting 10 15.6
2019-Dec-14 12:50 265 3 gusting 13 15.6
2019-Dec-14 12:40 285 5 gusting 13 15.6
2019-Dec-14 12:30 338 5 gusting 13 15.0
2019-Dec-14 12:20 022 3 gusting 15 14.4
2019-Dec-14 12:10 283 2 gusting 10 13.9
2019-Dec-14 12:00 154 0 gusting 5 13.3
2019-Dec-14 11:50 258 2 gusting 7 12.8
2019-Dec-14 11:40 269 5 gusting 10 12.8
2019-Dec-14 11:30 280 3 gusting 10 12.2
2019-Dec-14 11:20 275 5 gusting 10 11.7
2019-Dec-14 11:10 312 4 gusting 13 11.7
2019-Dec-14 11:00 269 2 gusting 10 11.1
2019-Dec-14 10:50 318 5 gusting 13 11.1
2019-Dec-14 10:40 282 4 gusting 10 10.6
2019-Dec-14 10:30 277 2 gusting 10 10.6
2019-Dec-14 10:20 283 3 gusting 10 10.0
2019-Dec-14 10:10 280 6 gusting 10 10.0
2019-Dec-14 10:00 300 4 gusting 10 10.0
2019-Dec-14 09:50 276 6 gusting 10 10.0
2019-Dec-14 09:40 284 4 gusting 7 9.4
2019-Dec-14 09:30 274 2 gusting 10 8.9
2019-Dec-14 09:20 276 1 gusting 7 8.9
2019-Dec-14 09:00 283 4 gusting 13 8.3
2019-Dec-14 08:50 299 4 gusting 10 8.3
2019-Dec-14 08:40 316 2 gusting 10 7.2
2019-Dec-14 08:30 032 3 gusting 7 6.7
2019-Dec-14 08:20 008 0 gusting 5 5.6
2019-Dec-14 08:10 098 2 gusting 7 5.6
2019-Dec-14 08:00 350 1 gusting 7 5.0
2019-Dec-14 07:50 273 5 gusting 10 5.0
2019-Dec-14 07:40 276 1 gusting 5 4.4
2019-Dec-14 07:30 282 6 gusting 13 4.4
2019-Dec-14 07:20 262 4 gusting 10 4.4
2019-Dec-14 07:10 299 2 gusting 10 3.9
2019-Dec-14 07:00 291 2 gusting 5 3.9
2019-Dec-14 06:50 331 0 gusting 5 3.3
2019-Dec-14 06:40 003 1 gusting 7 2.8
2019-Dec-14 06:30 296 2 gusting 7 2.8
2019-Dec-14 06:20 292 2 gusting 7 2.8
2019-Dec-14 06:10 332 4 gusting 10 2.8
2019-Dec-14 06:00 325 4 gusting 10 3.3
2019-Dec-14 05:50 328 6 gusting 18 3.3
2019-Dec-14 05:40 344 6 gusting 13 3.3
2019-Dec-14 05:30 330 5 gusting 13 3.9
2019-Dec-14 05:20 328 5 gusting 13 3.9
2019-Dec-14 05:10 327 6 gusting 18 3.9
2019-Dec-14 05:00 341 6 gusting 15 4.4
2019-Dec-14 04:50 340 6 gusting 15 4.4
2019-Dec-14 04:40 336 7 gusting 20 4.4
2019-Dec-14 04:30 317 5 gusting 18 4.4
2019-Dec-14 04:20 003 5 gusting 18 4.4
2019-Dec-14 04:10 283 5 gusting 13 4.4
2019-Dec-14 04:00 316 6 gusting 18 3.9
2019-Dec-14 03:50 337 7 gusting 15 4.4
2019-Dec-14 03:40 306 6 gusting 18 4.4
2019-Dec-14 03:30 323 6 gusting 18 4.4
2019-Dec-14 03:20 329 6 gusting 18 5.0
2019-Dec-14 03:10 318 6 gusting 15 5.0
2019-Dec-14 03:00 309 6 gusting 15 5.6
2019-Dec-14 02:50 315 7 gusting 18 5.6
2019-Dec-14 02:40 315 5 gusting 15 6.1
2019-Dec-14 02:30 339 9 gusting 23 6.1
2019-Dec-14 02:20 323 7 gusting 20 6.1
2019-Dec-14 02:10 343 8 gusting 18 6.1
2019-Dec-14 02:00 340 8 gusting 20 6.1
2019-Dec-14 01:50 338 8 gusting 20 6.7
2019-Dec-14 01:40 339 8 gusting 26 6.7
2019-Dec-14 01:30 318 8 gusting 26 6.7
2019-Dec-14 01:20 318 8 gusting 20 6.1
2019-Dec-14 01:10 325 8 gusting 36 6.1
2019-Dec-14 01:00 309 4 gusting 10 5.6
2019-Dec-14 00:50 307 6 gusting 15 5.0
2019-Dec-14 00:40 306 3 gusting 20 5.0
2019-Dec-14 00:30 294 4 gusting 15 4.4
2019-Dec-14 00:20 296 3 gusting 13 4.4
2019-Dec-14 00:10 270 3 gusting 10 4.4
2019-Dec-14 00:00 322 0 gusting 10 5.0
2019-Dec-13 23:50 280 1 gusting 5 5.0
2019-Dec-13 23:40 281 2 gusting 7 5.0
2019-Dec-13 23:30 267 3 gusting 7 5.6
2019-Dec-13 23:20 279 2 gusting 7 6.1
2019-Dec-13 23:10 288 3 gusting 13 6.1
2019-Dec-13 23:00 329 2 gusting 7 5.6
2019-Dec-13 22:50 299 2 gusting 7 6.1
2019-Dec-13 22:40 294 1 gusting 5 6.1
2019-Dec-13 22:30 321 3 gusting 15 6.1
2019-Dec-13 22:20 289 4 gusting 15 6.7
2019-Dec-13 22:10 324 4 gusting 10 6.7
2019-Dec-13 22:00 335 4 gusting 15 6.7
2019-Dec-13 21:50 330 3 gusting 10 6.7
2019-Dec-13 21:40 321 4 gusting 10 7.2
2019-Dec-13 21:30 322 2 gusting 10 7.2
2019-Dec-13 21:20 326 2 gusting 10 7.2
2019-Dec-13 21:10 328 4 gusting 13 6.7
2019-Dec-13 21:00 334 5 gusting 15 6.7
2019-Dec-13 20:50 327 2 gusting 10 6.7
2019-Dec-13 20:40 322 3 gusting 10 6.7
2019-Dec-13 20:30 288 3 gusting 7 6.7
2019-Dec-13 20:20 306 3 gusting 10 6.7
2019-Dec-13 20:10 235 1 gusting 7 6.7
2019-Dec-13 19:00 297 5 gusting 13 7.8
2019-Dec-13 18:50 313 5 gusting 13 7.8
2019-Dec-13 18:40 313 3 gusting 10 8.3
2019-Dec-13 18:30 329 4 gusting 15 8.3
2019-Dec-13 18:20 324 3 gusting 7 8.3
2019-Dec-13 18:10 293 4 gusting 15 8.3
2019-Dec-13 18:00 288 2 gusting 7 8.3
2019-Dec-13 16:20 283 6 gusting 23 11.1
2019-Dec-13 16:10 275 8 gusting 15 11.1
2019-Dec-13 16:00 270 11 gusting 26 11.1
2019-Dec-13 15:50 281 12 gusting 23 11.1
2019-Dec-13 15:40 278 16 gusting 31 11.1
2019-Dec-13 15:30 274 11 gusting 23 11.1
2019-Dec-13 15:20 268 9 gusting 20 11.1
2019-Dec-13 15:10 261 9 gusting 20 11.1
2019-Dec-13 15:00 270 10 gusting 26 11.1
2019-Dec-13 14:50 260 10 gusting 26 10.0
2019-Dec-13 14:40 269 10 gusting 23 8.9
2019-Dec-13 14:30 265 7 gusting 18 7.8
2019-Dec-13 14:20 334 1 gusting 5 6.7
2019-Dec-13 14:10 013 6.7
2019-Dec-13 14:00 078 0 gusting 2 6.1
2019-Dec-13 13:50 036 2 gusting 5 6.1
2019-Dec-13 13:40 034 1 gusting 5 5.6
2019-Dec-13 13:30 047 0 gusting 5 5.6
2019-Dec-13 13:20 075 5.6
2019-Dec-13 13:10 110 0 gusting 5 5.6
2019-Dec-13 13:00 081 0 gusting 5 5.0
2019-Dec-13 12:50 092 5.0
2019-Dec-13 12:40 219 5.0
2019-Dec-13 12:30 099 3 gusting 7 5.0
2019-Dec-13 12:20 118 1 gusting 5 5.0
2019-Dec-13 12:10 115 2 gusting 10 5.0
2019-Dec-13 12:00 165 5.0
2019-Dec-13 11:50 151 2 gusting 7 5.0
2019-Dec-13 11:40 103 0 gusting 2 5.0
2019-Dec-13 11:30 116 1 gusting 5 5.0
2019-Dec-13 11:20 124 1 gusting 5 5.0
2019-Dec-13 11:10 108 3 gusting 5 4.4
2019-Dec-13 11:00 106 2 gusting 7 4.4
2019-Dec-13 10:50 104 3 gusting 7 4.4
2019-Dec-13 10:40 090 0 gusting 5 4.4
2019-Dec-13 10:30 106 2 gusting 5 4.4
2019-Dec-13 10:20 107 5 gusting 10 4.4
2019-Dec-13 10:10 111 4 gusting 7 4.4
2019-Dec-13 10:00 101 5 gusting 15 4.4
2019-Dec-13 09:50 112 2 gusting 7 4.4
2019-Dec-13 09:40 095 7 gusting 13 3.9
2019-Dec-13 09:30 099 6 gusting 13 3.9
2019-Dec-13 09:20 104 6 gusting 18 3.9
2019-Dec-13 09:10 104 6 gusting 13 3.9
2019-Dec-13 09:00 103 5 gusting 10 3.3
2019-Dec-13 08:50 112 5 gusting 10 3.3
2019-Dec-13 08:40 133 4 gusting 13 3.3
2019-Dec-13 08:30 109 5 gusting 13 3.3
2019-Dec-13 08:20 105 5 gusting 13 3.3
2019-Dec-13 08:10 111 5 gusting 10 3.3
2019-Dec-13 08:00 104 6 gusting 13 3.3
2019-Dec-13 07:50 103 6 gusting 15 3.3
2019-Dec-13 07:40 099 5 gusting 10 3.3
2019-Dec-13 07:30 080 3 gusting 7 3.3
2019-Dec-13 07:20 090 3 gusting 10 3.3
2019-Dec-13 07:10 093 5 gusting 10 3.3
2019-Dec-13 07:00 112 4 gusting 7 3.3
2019-Dec-13 06:50 099 6 gusting 10 3.3
2019-Dec-13 06:40 105 3 gusting 10 3.3
2019-Dec-13 06:30 104 4 gusting 10 3.3
2019-Dec-13 06:20 101 3 gusting 10 3.3
2019-Dec-13 06:10 108 3 gusting 7 3.3
2019-Dec-13 06:00 092 4 gusting 10 3.3
2019-Dec-13 05:50 102 2 gusting 7 2.8
2019-Dec-13 05:40 111 2 gusting 5 2.8
2019-Dec-13 05:30 163 0 gusting 2 3.3
2019-Dec-13 05:20 135 1 gusting 5 3.3
2019-Dec-13 05:10 125 1 gusting 7 3.3
2019-Dec-13 05:00 100 3 gusting 10 2.8
2019-Dec-13 04:50 104 2 gusting 7 2.2
2019-Dec-13 04:40 111 2 gusting 5 1.7
2019-Dec-13 04:30 121 1 gusting 5 2.2
2019-Dec-13 04:20 132 2.8
2019-Dec-13 04:10 117 1 gusting 5 3.3
2019-Dec-13 04:00 094 3.9
2019-Dec-13 03:50 083 2 gusting 5 3.3
2019-Dec-13 03:40 082 1 gusting 5 3.3
2019-Dec-13 03:30 3.3
2019-Dec-13 03:20 069 0 gusting 2 3.3
2019-Dec-13 03:10 092 3.3
2019-Dec-13 03:00 035 3.3
2019-Dec-13 02:50 062 1 gusting 5 3.3
2019-Dec-13 02:40 3.9
2019-Dec-13 02:30 268 3.9
2019-Dec-13 02:20 039 2 gusting 5 3.9
2019-Dec-13 02:10 033 0 gusting 5 3.9
2019-Dec-13 02:00 034 3 gusting 5 3.9
2019-Dec-13 01:50 031 2 gusting 5 3.9
2019-Dec-13 01:40 3.9
2019-Dec-13 01:30 3.9
2019-Dec-13 01:20 3.9
2019-Dec-13 01:10 3.9
2019-Dec-13 01:00 3.9
2019-Dec-13 00:50 3.3
2019-Dec-13 00:40 3.3
2019-Dec-13 00:30 3.9
2019-Dec-13 00:20 3.9
2019-Dec-13 00:10 3.9
2019-Dec-13 00:00 3.9
2019-Dec-12 23:50 3.9
2019-Dec-12 23:40 3.9
2019-Dec-12 23:30 4.4
2019-Dec-12 23:20 4.4
2019-Dec-12 23:10 4.4
2019-Dec-12 23:00 5.0
2019-Dec-12 22:50 5.0
2019-Dec-12 22:40 5.6
2019-Dec-12 22:30 5.6
2019-Dec-12 22:20 5.6
2019-Dec-12 22:10 5.6
2019-Dec-12 22:01 326 1 gusting 7 5.6
2019-Dec-12 21:50 345 0 gusting 5 5.6
2019-Dec-12 21:40 327 0 gusting 5 5.6
2019-Dec-12 21:30 312 0 gusting 7 5.6
2019-Dec-12 21:20 338 1 gusting 7 5.6
2019-Dec-12 21:10 319 1 gusting 5 5.6
2019-Dec-12 21:00 314 0 gusting 5 5.6
2019-Dec-12 20:50 6.1
2019-Dec-12 20:40 298 0 gusting 2 6.1
2019-Dec-12 20:30 294 6.1
2019-Dec-12 20:20 294 6.1
2019-Dec-12 20:10 290 0 gusting 2 6.1
2019-Dec-12 20:00 6.1
2019-Dec-12 19:50 6.1
2019-Dec-12 19:40 6.1
2019-Dec-12 19:30 5.6
2019-Dec-12 19:20 6.1
2019-Dec-12 19:10 290 6.1
2019-Dec-12 19:00 285 0 gusting 2 5.6
2019-Dec-12 18:50 316 5.6
2019-Dec-12 18:40 321 1 gusting 5 5.6
2019-Dec-12 18:30 5.6
2019-Dec-12 18:20 5.6
2019-Dec-12 18:10 023 5.6
2019-Dec-12 18:00 5.6
2019-Dec-12 17:50 5.6
2019-Dec-12 17:40 5.6
2019-Dec-12 17:30 5.6
2019-Dec-12 17:20 5.6
2019-Dec-12 17:10 025 2 gusting 5 6.1
2019-Dec-12 17:00 6.1
2019-Dec-12 16:50 6.1
2019-Dec-12 16:40 031 0 gusting 2 6.1
2019-Dec-12 16:30 032 1 gusting 5 6.1
2019-Dec-12 16:20 274 1 gusting 5 6.1
2019-Dec-12 16:10 279 1 gusting 5 6.1
2019-Dec-12 16:00 306 6.1
2019-Dec-12 15:50 299 6.7
2019-Dec-12 15:40 285 0 gusting 2 6.7
2019-Dec-12 15:30 231 0 gusting 5 7.2
2019-Dec-12 15:20 243 1 gusting 7 7.8
2019-Dec-12 15:10 229 3 gusting 7 8.9
2019-Dec-12 15:00 212 1 gusting 5 9.4